Regional Weather Roundup
Issued by NWS

Home | Current Version | Previous Version | Graphics & Text | Print | Product List | Glossary On
Versions: 1 2 3 4 5 6 7 8 9 10 11 12 13 14 15 16 17 18 19 20 21 22 23 24 25 26 27 28 29 30 31 32 33 34 35 36 37 38 39 40 41 42 43 44 45 46 47 48 49 50
000
ASUS43 KIND 280709
RWRIN

WEATHER ROUNDUP FOR INDIANA
NATIONAL WEATHER SERVICE INDIANAPOLIS IN
200 AM EST TUE FEB 28 2017

NOTE: "FAIR" INDICATES FEW OR NO CLOUDS BELOW 12,000 FEET WITH NO
SIGNIFICANT WEATHER AND/OR OBSTRUCTIONS TO VISIBILITY.

* - STATION DOES NOT REPORT WEATHER SUCH AS PRECIPITATION OR FOG.

+ - STATION NOT QUALITY CONTROLLED BY THE NATIONAL WEATHER SERVICE.
    USE DATA WITH CAUTION...ESPECIALLY DEWPOINT AND RELATIVE
    HUMIDITY OBSERVATIONS.

INZ001>003-010>013-019-020-280800-
NORTHWEST INDIANA

CITY           SKY/WX    TMP DP  RH WIND       PRES   REMARKS
GARY /AIRPORT/ LGT RAIN  47  42  80 SE9G16    30.00F
KNOX *+        CLOUDY    43  28  56 SE14      30.04F
LA PORTE +     CLOUDY    43  40  90 SE10      30.04F
MICHIGAN CITY+ CLOUDY    45  41  87 SE6       30.05F
MONTICELLO +   CLOUDY    45  40  85 SE6       30.02F
RENSSELAER +   CLOUDY    45  43  93 SE13      30.03F
VALPARAISO     LGT RAIN  46  42  86 SE9       30.03F

$$

LMZ046-743>745-280800-
SOUTHERN LAKE MICHIGAN

STATION/POSITION TIME  TEMP    WIND        PRES    WAVE
                       AIR SEA DIR/SP/G            HT
                 (UTC) (F)     (DEG/KT/KT) (MB)    (FT)
BURNS HARBOR     0640   47     170/ 13/ 18 1017.3F
MICHIGAN CITY    0640   45     120/ 11/ 13   N/A

$$

INZ004-005-014>016-021>024-280800-
NORTH CENTRAL INDIANA

CITY           SKY/WX    TMP DP  RH WIND       PRES   REMARKS
GOSHEN         CLOUDY    42  38  85 SE12      30.09F
LOGANSPORT +   CLOUDY    45  41  87 SE14      30.05F
PERU/GRISSOM   CLOUDY    45  43  93 SE12      30.03F
ROCHESTER +    CLOUDY    45  41  87 E7        30.07F
SOUTH BEND     MOCLDY    43  39  86 SE15      30.06F
WARSAW +       CLOUDY    43  39  87 SE5       30.09F

$$

INZ006>009-017-018-025>027-280800-
NORTHEAST INDIANA

CITY           SKY/WX    TMP DP  RH WIND       PRES   REMARKS
ANGOLA *+      CLOUDY    39  36  87 S7        30.13R
AUBURN +       CLOUDY    41  37  87 CALM      30.13S FOG
FORT WAYNE     CLOUDY    42  39  89 E5        30.12F FOG
HUNTINGTON +   CLOUDY    42  40  95 SE5       30.11F
KENDALLVILLE + CLOUDY    40  40  99 SE8       30.13R FOG

$$

INZ028-029-035-036-043>045-051>053-280800-
WEST CENTRAL INDIANA

CITY           SKY/WX    TMP DP  RH WIND       PRES   REMARKS
GREENCASTLE +  FAIR      45  39  81 SE6       30.05F
LAFAYETTE      MOCLDY    46  42  86 SE8       30.00F
TERRE HAUTE    CLOUDY    50  41  71 S12       30.03F

$$

INZ030>032-037>040-046>048-054>057-064-065-280800-
CENTRAL INDIANA

CITY           SKY/WX    TMP DP  RH WIND       PRES   REMARKS
CP ATTERBURY + PTCLDY    43  37  81 CALM      30.08F
FRANKFORT +    CLOUDY    46  42  85 SE13      30.05F
GREENWOOD *+   CLOUDY    44  40  85 SE6       30.07F
INDIANAPOLIS   CLOUDY    45  40  82 SE13      30.05F
-EAGLE CREEK   MOCLDY    46  39  76 SE8       30.05F
KOKOMO +       LGT RAIN  44  41  89 SE15      30.06F
MARION +       CLOUDY    43  39  88 SE9       30.09F FOG
MT COMFORT *+  CLOUDY    43  39  87 SE6       30.09F
SHELBYVILLE    CLOUDY    48  39  71 SE9       30.08F
ZIONSVILLE +   CLOUDY    44  39  83 SE8       30.06F

$$

INZ033-034-041-042-049-050-058-059-280800-
EAST CENTRAL INDIANA

CITY           SKY/WX    TMP DP  RH WIND       PRES   REMARKS
MUNCIE         CLOUDY    47  39  74 SE8       30.10F

$$

INZ060-061-067>069-081>083-085>088-280800-
SOUTHWEST INDIANA

CITY           SKY/WX    TMP DP  RH WIND       PRES   REMARKS
EVANSVILLE     CLOUDY    53  44  71 S10       30.05F
HUNTINGBURG *+ CLOUDY    52  45  76 S10       30.06F
WASHINGTON +   CLOUDY    51  42  71 S13       30.05F

$$

INZ062-063-066-070>080-084-089>092-280800-
SOUTH CENTRAL AND SOUTHEAST INDIANA

CITY           SKY/WX    TMP DP  RH WIND       PRES   REMARKS
BEDFORD +      CLOUDY    50  41  71 SE9       30.07F
BLOOMINGTON    CLOUDY    47  39  74 S10       30.05F
MADISON *+     CLOUDY    46  41  81 SE7       30.13F
NORTH VERNON + MOCLDY    50  43  76 S8        30.12F
SEYMOUR +      CLOUDY    48  41  76 S10       30.10F

$$




USA.gov is the U.S. government's official web portal to all federal, state and local government web resources and services.